Volk, WI

4:12 AM CDT on May 24, 2017 (GMT -0500)
Volk

Weather History for KVOK - May, 2014

Change the Weather History Date:

Monday, May 26, 2014

  Actual Average Record
Temperature  
Mean Temperature 72 °F -  
Max Temperature 83 °F 66 °F 83 °F (2014)
Min Temperature 61 °F 51 °F 35 °F (2011)
Cooling Degree Days 6    
Growing Degree Days 22 (Base 50)    
Moisture  
Dew Point 66 °F    
Average Humidity 83    
Maximum Humidity 100    
Minimum Humidity 63    
Precipitation  
Precipitation 0.01 in - - ()
Sea Level Pressure  
Sea Level Pressure 29.93 in    
Wind  
Wind Speed 6 mph (SSW)    
Max Wind Speed 14 mph    
Max Gust Speed -    
Visibility 10 miles    
Events Rain , Thunderstorm    
Averages and records for this station are not official NWS values.
T = Trace of Precipitation, MM = Missing Value Source: NWS Daily Summary

Daily Weather History Graph

Daily Weather History Graph

Search for Another Location

Airport or City:

Trip Planner

Search our weather history database for the weather conditions in past years. The results will help you decide how hot, cold, wet, or windy it might be!

Date:

Astronomy

May. 26, 2014 Rise Set
Actual Time 5:25 AM CDT 8:31 PM CDT
Civil Twilight 4:50 AM CDT 9:06 PM CDT
Nautical Twilight 4:06 AM CDT 9:51 PM CDT
Astronomical Twilight 3:12 AM CDT 10:44 PM CDT
Moon 4:12 AM CDT (5/26) 6:30 PM CDT (5/26)
Length of Visible Light 16h 15m
Length of Day
15h 06m
Waning Crescent, 5% of the Moon is Illuminated
May 26
Waning Crescent
May 28
New
Jun 5
First Quarter
Jun 12
Full
Jun 19
Last Quarter

Hourly Weather History & Observations

Time (CDT) Temp. Heat Index Dew Point Humidity Pressure Visibility Wind Dir Wind Speed Gust Speed Precip Events Conditions
12:58 AM 64.0 °F - 60.6 °F 89% 29.98 in 10.0 mi SSE 4.6 mph - N/A   Scattered Clouds
1:58 AM 64.4 °F - 58.8 °F 82% 29.96 in 10.0 mi SSE 6.9 mph - N/A   Scattered Clouds
2:58 AM 64.0 °F - 59.0 °F 84% 29.95 in 10.0 mi South 8.1 mph - N/A   Clear
3:58 AM 64.9 °F - 59.0 °F 81% 29.95 in 10.0 mi South 5.8 mph - N/A   Clear
4:58 AM 66.4 °F - 60.8 °F 82% 29.96 in 10.0 mi NE 2.3 mph - N/A   Clear
5:58 AM 61.5 °F - 61.2 °F 99% 29.97 in 10.0 mi Calm Calm - N/A   Clear
6:58 AM 67.5 °F - 65.1 °F 92% 29.98 in 10.0 mi ESE 2.3 mph - N/A   Partly Cloudy
7:58 AM 72.0 °F - 63.9 °F 76% 29.98 in 10.0 mi WSW 8.1 mph - N/A   Clear
8:58 AM 73.8 °F - 63.7 °F 71% 29.99 in 10.0 mi SW 8.1 mph - N/A   Scattered Clouds
9:58 AM 76.6 °F - 64.4 °F 66% 29.98 in 10.0 mi SW 9.2 mph - N/A   Partly Cloudy
10:51 AM 75.2 °F - 64.4 °F 69% 29.99 in 10.0 mi WSW 9.2 mph - N/A Rain Light Rain
10:58 AM 74.3 °F - 66.7 °F 77% 29.98 in 8.0 mi SW 10.4 mph - 0.00 in Rain Light Rain
11:22 AM 73.4 °F - 69.8 °F 88% 29.98 in 9.0 mi Variable 3.5 mph - N/A Rain Light Rain
11:37 AM 73.4 °F - 69.8 °F 88% 29.97 in 10.0 mi SW 4.6 mph - N/A   Partly Cloudy
11:39 AM 73.4 °F - 69.8 °F 88% 29.97 in 10.0 mi SW 4.6 mph - N/A Rain Light Rain
11:58 AM 74.1 °F - 69.8 °F 86% 29.97 in 10.0 mi SSE 5.8 mph - 0.01 in   Light Drizzle
12:00 PM 75.2 °F - 69.8 °F 83% 29.97 in 10.0 mi SSE 8.1 mph - N/A   Clear
12:58 PM 76.5 °F - 67.5 °F 74% 29.96 in 10.0 mi West 4.6 mph - 0.00 in   Partly Cloudy
1:58 PM 77.7 °F - 68.5 °F 73% 29.93 in 10.0 mi West 5.8 mph - N/A   Partly Cloudy
2:58 PM 82.2 °F 85.8 °F 69.3 °F 65% 29.91 in 10.0 mi WSW 4.6 mph - N/A Thunderstorm Scattered Clouds
3:56 PM 75.6 °F - 65.5 °F 71% 29.91 in 10.0 mi South 13.8 mph - N/A   Partly Cloudy
3:58 PM 75.6 °F - 65.5 °F 71% 29.91 in 10.0 mi South 12.7 mph - N/A   Partly Cloudy
4:10 PM 73.4 °F - 68.0 °F 83% 29.90 in 10.0 mi South 11.5 mph - N/A Rain Light Rain
4:17 PM 73.4 °F - 68.0 °F 83% 29.90 in 10.0 mi South 10.4 mph - N/A   Scattered Clouds
4:58 PM 77.9 °F - 70.0 °F 76% 29.88 in 10.0 mi SSW 10.4 mph - 0.00 in   Clear
5:58 PM 80.2 °F 82.5 °F 66.6 °F 63% 29.89 in 10.0 mi SSW 8.1 mph - N/A   Clear
6:58 PM 79.0 °F - 66.6 °F 66% 29.89 in 10.0 mi South 6.9 mph - N/A   Clear
7:58 PM 77.2 °F - 68.4 °F 74% 29.88 in 10.0 mi SSE 5.8 mph - N/A   Clear
8:58 PM 73.8 °F - 69.3 °F 86% 29.88 in 10.0 mi South 5.8 mph - N/A   Clear
9:58 PM 71.1 °F - 69.8 °F 96% 29.90 in 10.0 mi SSE 3.5 mph - 0.00 in   Scattered Clouds
9:59 PM 69.8 °F - 69.8 °F 100% 29.90 in 10.0 mi SSE 3.5 mph - N/A Rain Light Rain
10:13 PM 68.0 °F - 68.0 °F 100% 29.90 in 10.0 mi Calm Calm - N/A   Scattered Clouds
10:14 PM 68.0 °F - 68.0 °F 100% 29.90 in 10.0 mi NNE 1.2 mph - N/A   Light Drizzle
10:24 PM 68.0 °F - 68.0 °F 100% 29.90 in 10.0 mi Calm Calm - N/A   Partly Cloudy
10:58 PM 68.0 °F - 67.8 °F 99% 29.89 in 10.0 mi SSW 4.6 mph - 0.00 in   Clear
11:58 PM 71.1 °F - 68.4 °F 91% 29.90 in 10.0 mi SSW 4.6 mph - 0.00 in   Mostly Cloudy